QPF
0.00 0.00 0.00 0.00 0.00 0.00 0.00 0.00 0.00 0.00 0.00 0.00 0.00 0.00 0.00 0.00 0.00 0.00 0.00 0.00 0.01 0.01 0.02 0.04 0.04 0.05 0.04
0.00 0.00 0.00 0.00 0.00 0.00 0.00 0.00 0.00 0.00 0.00 0.00 0.00 0.00 0.00 0.00 0.00 0.00 0.00 0.00 0.01 0.01 0.00 0.00 0.01 0.02 0.04
0.00 0.00 0.00 0.00 0.00 0.00 0.00 0.00 0.00 0.00 0.00 0.00 0.00 0.00 0.00 0.00 0.00 0.00 0.00 0.00 0.00 0.00 0.00 0.00 0.00 0.01 0.01
0.00 0.00 0.00 0.00 0.00 0.00 0.00 0.00 0.00 0.00 0.00 0.00 0.00 0.00 0.00 0.00 0.00 0.00 0.00 0.00 0.00 0.00 0.00 0.00 0.01 0.01 0.01
0.00 0.00 0.00 0.00 0.00 0.00 0.00 0.00 0.00 0.00 0.00 0.00 0.00 0.00 0.00 0.00 0.00 0.00 0.00 0.00 0.00 0.00 0.00 0.01 0.01 0.01 0.01
0.00 0.00 0.00 0.00 0.00 0.00 0.00 0.00 0.00 0.00 0.00 0.00 0.00 0.00 0.00 0.00 0.00 0.00 0.00 0.00 0.00 0.00 0.00 0.00 0.01 0.01 0.01
0.00 0.00 0.00 0.00 0.00 0.00 0.01 0.02 0.01 0.00 0.00 0.00 0.00 0.00 0.00 0.00 0.00 0.00 0.00 0.00 0.00 0.00 0.00 0.00 0.00 0.00 0.00
0.00 0.00 0.00 0.00 0.00 0.03 0.03 0.01 0.00 0.00 0.00 0.00 0.00 0.00 0.00 0.00 0.00 0.00 0.00 0.00 0.00 0.00 0.00 0.00 0.00 0.00 0.01
0.00 0.00 0.00 0.00 0.00 0.00 0.00 0.00 0.00 0.00 0.00 0.00 0.00 0.00 0.00 0.00 0.00 0.00 0.00 0.00 0.00 0.00 0.00 0.00 0.00 0.00 0.00
0.00 0.00 0.00 0.00 0.00 0.00 0.00 0.02 0.01 0.01 0.00 0.01 0.01 0.00 0.02 0.00 0.00 0.00 0.00 0.00 0.00 0.00 0.00 0.00 0.00 0.00 0.00
0.00 0.00 0.00 0.00 0.00 0.00 0.00 0.01 0.03 0.02 0.00 0.03 0.04 0.00 0.02 0.01 0.00 0.00 0.00 0.00 0.00 0.00 0.00 0.00 0.00 0.00 0.00
0.00 0.00 0.00 0.00 0.00 0.00 0.00 0.00 0.00 0.01 0.00 0.01 0.06 0.01 0.04 0.02 0.00 0.00 0.00 0.00 0.00 0.00 0.00 0.00 0.00 0.00 0.00
0.00 0.00 0.00 0.00 0.00 0.00 0.00 0.00 0.00 0.00 0.00 0.00 0.02 0.02 0.03 0.03 0.01 0.00 0.00 0.00 0.00 0.00 0.00 0.00 0.00 0.00 0.00
0.00 0.00 0.00 0.00 0.00 0.00 0.00 0.00 0.00 0.00 0.00 0.00 0.00 0.01 0.03 0.01 0.01 0.01 0.00 0.00 0.00 0.00 0.00 0.00 0.00 0.00 0.00
0.00 0.00 0.00 0.00 0.00 0.00 0.00 0.01 0.01 0.00 0.00 0.00 0.00 0.00 0.00 0.00 0.01 0.00 0.00 0.00 0.00 0.00 0.00 0.00 0.00 0.00 0.00
0.00 0.00 0.00 0.00 0.00 0.00 0.00 0.01 0.01 0.00 0.00 0.00 0.00 0.01 0.00 0.00 0.01 0.02 0.01 0.00 0.00 0.00 0.00 0.01 0.01 0.00 0.00
0.00 0.00 0.01 0.01 0.01 0.00 0.00 0.01 0.00 0.00 0.00 0.00 0.01 0.03 0.03 0.00 0.00 0.00 0.03 0.01 0.00 0.00 0.00 0.00 0.01 0.00 0.00
MSLP
1020.69 1020.37 1020.06 1019.56 1019.09 1018.68 1018.27 1017.72 1017.12 1016.53 1015.89 1015.14 1014.47 1013.88 1013.45 1012.92 1012.52 1011.97 1011.58 1011.14 1010.65 1010.14 1009.73 1009.37 1008.98 1008.62 1008.36
1020.34 1020.05 1019.63 1019.15 1018.79 1018.32 1017.73 1017.07 1016.52 1015.93 1015.25 1014.50 1013.95 1013.50 1012.87 1012.36 1011.70 1011.27 1010.67 1010.17 1009.71 1009.23 1008.80 1008.43 1007.96 1007.69 1007.41
1019.69 1019.45 1019.10 1018.71 1018.04 1017.58 1017.06 1016.34 1015.83 1015.18 1014.57 1014.00 1013.39 1012.83 1012.28 1011.52 1011.06 1010.43 1009.98 1009.55 1008.97 1008.41 1007.93 1007.48 1007.00 1006.65 1006.44
1019.44 1019.14 1018.74 1017.90 1017.43 1016.92 1016.12 1015.77 1015.01 1014.46 1013.89 1013.21 1012.73 1012.05 1011.60 1010.98 1010.54 1009.89 1009.38 1008.80 1008.15 1007.44 1006.81 1006.37 1006.03 1005.73 1005.35
1019.09 1018.66 1018.03 1017.38 1017.05 1016.44 1015.84 1014.97 1014.11 1013.71 1012.88 1012.41 1012.30 1011.57 1011.02 1010.36 1009.82 1009.13 1008.52 1007.64 1006.87 1006.30 1005.75 1005.20 1004.90 1004.64 1004.26
1018.45 1017.96 1017.50 1017.07 1016.59 1016.07 1015.39 1014.75 1013.12 1012.46 1012.16 1011.88 1011.40 1010.65 1010.07 1009.56 1008.85 1007.97 1007.14 1006.68 1005.89 1005.29 1004.74 1004.14 1003.74 1003.45 1003.16
1017.66 1017.39 1016.82 1016.42 1015.90 1015.35 1014.78 1014.13 1013.10 1012.15 1011.99 1010.94 1010.34 1009.62 1009.10 1008.41 1007.79 1006.92 1006.17 1005.53 1004.90 1004.15 1003.56 1003.03 1002.66 1002.31 1002.00
1016.86 1016.38 1015.91 1015.29 1014.93 1014.44 1013.95 1013.46 1012.65 1011.79 1011.52 1010.36 1009.61 1008.75 1008.14 1007.58 1006.74 1005.89 1005.23 1004.64 1003.93 1003.21 1002.76 1002.35 1001.81 1001.41 1000.91
1015.77 1015.40 1015.02 1014.57 1014.14 1013.80 1013.62 1013.31 1012.09 1011.12 1010.62 1010.11 1008.87 1008.25 1007.50 1006.34 1005.48 1004.85 1004.29 1003.77 1003.30 1002.64 1002.11 1001.45 1000.85 1000.33 999.99
1015.39 1015.05 1014.66 1014.34 1013.76 1013.67 1013.32 1012.92 1012.05 1010.64 1009.67 1009.68 1008.76 1008.41 1006.20 1004.98 1004.49 1004.24 1003.62 1003.07 1002.39 1001.64 1000.98 1000.40 999.92 999.66 999.19
1015.03 1014.57 1014.13 1013.71 1013.28 1012.89 1012.71 1012.47 1011.56 1010.65 1009.26 1009.21 1008.16 1007.75 1007.35 1005.27 1003.78 1003.30 1002.73 1001.73 1001.22 1000.45 999.99 999.40 998.90 998.67 998.12
1014.78 1014.25 1013.79 1013.25 1012.77 1012.34 1011.84 1011.44 1010.86 1010.11 1008.84 1008.64 1007.72 1007.11 1006.20 1005.03 1003.62 1001.99 1001.43 1000.78 1000.19 999.46 998.96 998.29 997.70 997.20 996.78
1014.60 1014.00 1013.56 1012.93 1012.28 1011.66 1010.87 1010.34 1009.56 1008.63 1007.78 1007.30 1006.91 1006.06 1005.51 1004.38 1003.05 1001.62 1000.39 999.42 998.89 998.29 997.88 997.21 996.58 996.03 995.41
1014.43 1013.75 1013.06 1012.39 1011.60 1010.94 1010.37 1009.52 1008.78 1007.17 1006.44 1005.97 1005.46 1004.99 1004.05 1003.19 1002.23 1000.57 999.67 999.03 997.92 997.33 996.51 995.64 995.09 994.72 994.05
1014.05 1013.32 1012.57 1011.85 1010.97 1010.19 1009.68 1008.95 1008.28 1006.95 1005.57 1004.52 1003.99 1003.52 1002.86 1002.16 1000.87 999.46 998.40 997.57 996.74 995.90 995.35 994.36 993.45 992.88 992.33
1013.64 1012.97 1012.17 1011.35 1010.53 1009.59 1008.91 1008.31 1007.39 1006.20 1005.15 1003.99 1003.22 1002.27 1001.02 999.95 999.50 998.00 997.01 996.21 995.28 994.66 994.16 993.29 991.72 990.78 990.43
1013.17 1012.32 1011.55 1010.72 1009.84 1008.96 1008.19 1007.36 1006.30 1005.32 1004.19 1003.41 1002.56 1001.52 1000.08 998.32 996.91 996.53 995.93 995.07 994.20 993.40 992.70 991.85 990.77 989.15 988.92
Thickness
5434 5430 5425 5422 5419 5414 5409 5405 5400 5391 5385 5379 5374 5367 5359 5349 5342 5336 5332 5330 5331 5334 5338 5341 5344 5348 5353
5421 5414 5410 5405 5399 5394 5389 5382 5373 5364 5357 5351 5342 5336 5329 5326 5323 5321 5322 5324 5327 5329 5330 5334 5339 5343 5346
5408 5400 5394 5387 5383 5376 5368 5359 5348 5338 5330 5323 5322 5319 5318 5317 5316 5317 5317 5318 5321 5323 5325 5329 5335 5339 5341
5391 5383 5375 5372 5364 5356 5353 5336 5327 5315 5313 5311 5312 5310 5309 5308 5307 5309 5310 5313 5316 5320 5324 5328 5332 5334 5338
5372 5365 5358 5350 5337 5332 5322 5317 5311 5304 5309 5304 5301 5299 5298 5299 5299 5301 5305 5311 5316 5319 5323 5327 5329 5332 5335
5353 5344 5334 5321 5312 5304 5299 5298 5308 5294 5299 5298 5289 5294 5291 5291 5292 5295 5303 5306 5312 5315 5318 5323 5326 5329 5332
5333 5321 5311 5297 5292 5289 5287 5286 5288 5286 5284 5293 5282 5287 5283 5285 5285 5290 5295 5301 5306 5310 5315 5319 5322 5325 5329
5311 5300 5291 5288 5285 5283 5280 5278 5276 5270 5265 5277 5275 5277 5276 5276 5276 5283 5287 5292 5298 5303 5306 5309 5315 5319 5325
5296 5290 5285 5279 5274 5272 5263 5259 5263 5262 5253 5259 5262 5263 5265 5271 5271 5276 5280 5284 5288 5293 5296 5302 5307 5313 5320
5288 5280 5275 5268 5261 5254 5250 5246 5247 5255 5248 5250 5248 5245 5265 5268 5266 5267 5270 5274 5281 5287 5291 5296 5300 5307 5314
5284 5277 5269 5261 5253 5246 5239 5234 5237 5239 5242 5239 5245 5242 5242 5259 5267 5266 5264 5272 5276 5283 5287 5291 5296 5302 5310
5276 5269 5262 5253 5245 5240 5235 5231 5228 5232 5237 5233 5239 5239 5243 5250 5259 5268 5266 5270 5273 5279 5283 5289 5296 5302 5309
5266 5260 5251 5245 5239 5236 5233 5231 5230 5232 5235 5235 5235 5239 5240 5245 5253 5261 5268 5270 5272 5278 5283 5290 5297 5303 5309
5259 5251 5243 5236 5231 5228 5227 5228 5228 5235 5235 5237 5239 5240 5244 5245 5250 5260 5264 5266 5274 5278 5287 5296 5301 5304 5309
5250 5243 5236 5229 5225 5222 5220 5222 5223 5231 5237 5242 5244 5244 5244 5243 5252 5260 5267 5271 5278 5286 5291 5300 5306 5309 5313
5243 5235 5228 5222 5218 5218 5218 5218 5222 5229 5235 5242 5245 5249 5254 5256 5255 5265 5273 5280 5288 5292 5295 5302 5314 5317 5321
5240 5232 5224 5218 5216 5215 5216 5219 5226 5232 5237 5240 5245 5250 5259 5267 5275 5278 5281 5287 5294 5298 5302 5308 5316 5327 5326